CDT,Max TemperatureF,Mean TemperatureF,Min TemperatureF,Max Dew PointF,MeanDew PointF,Min DewpointF,Max Humidity, Mean Humidity, Min Humidity, Max Sea Level PressureIn, Mean Sea Level PressureIn, Min Sea Level PressureIn, Max VisibilityMiles, Mean VisibilityMiles, Min VisibilityMiles, Max Wind SpeedMPH, Mean Wind SpeedMPH, Max Gust SpeedMPH,PrecipitationIn, CloudCover, Events, WindDirDegrees
2013-3-1,26,22,14,19,16,10,86,76,64,30.36,30.30,30.21,10,10,7,12,8,17,0.00,7,Snow,10
2013-3-2,30,19,8,21,15,3,93,79,64,30.34,30.22,30.05,10,10,5,10,4,,0.00,3,Snow,180
2013-3-3,35,28,21,28,24,19,93,80,69,30.05,29.88,29.75,10,8,5,21,10,25,0.00,4,,142
2013-3-4,32,30,28,28,27,21,93,87,69,29.95,29.82,29.72,10,6,2,17,9,23,0.00,8,Snow,161
2013-3-5,28,26,23,23,20,18,86,78,74,30.35,30.13,29.92,10,8,0,25,15,32,0.00,8,Snow,328
2013-3-6,26,22,17,21,17,14,93,83,74,30.41,30.34,30.26,10,9,4,13,7,,0.00,8,Snow,84
2013-3-7,35,28,21,30,23,18,93,85,74,30.28,30.19,30.11,10,8,5,20,12,26,0.00,3,,138
2013-3-8,42,34,26,34,29,23,93,83,66,30.20,30.11,29.93,7,5,2,15,7,18,0.04,2,Rain,126
2013-3-9,39,36,32,37,33,28,100,93,87,29.92,29.75,29.62,10,4,1,18,9,29,0.41,8,Rain-Snow,86
2013-3-10,32,28,21,28,22,18,87,81,74,29.99,29.93,29.81,10,8,4,29,20,38,0.00,8,Snow,3
2013-3-11,32,24,17,23,18,12,86,73,60,29.94,29.88,29.82,10,10,10,16,12,23,0.00,5,,328
2013-3-12,30,26,21,25,20,16,86,75,64,30.28,30.08,29.92,10,8,0,25,16,34,0.00,6,Snow,316
2013-3-13,33,24,14,27,18,10,86,76,64,30.38,30.30,30.16,10,10,10,15,8,21,0.00,1,Snow,217
2013-3-14,50,39,28,37,31,23,100,78,61,30.15,30.06,30.00,10,9,5,13,7,16,0.00,1,Rain,269
2013-3-15,37,34,32,34,32,30,100,91,81,29.99,29.86,29.78,10,5,1,17,6,22,0.00,6,,40
2013-3-16,32,24,17,30,19,10,93,76,64,30.22,30.10,29.89,10,10,5,20,13,24,0.00,5,,3
2013-3-17,32,23,14,30,17,7,93,76,64,30.22,29.96,29.65,10,10,2,22,13,31,0.00,7,Snow,121
2013-3-18,33,24,14,32,15,5,100,76,62,29.99,29.80,29.63,10,7,2,32,22,41,0.00,6,Rain-Snow,297
2013-3-19,30,19,8,18,8,1,79,66,50,30.32,30.14,29.98,10,10,5,21,11,28,0.00,2,Snow,332
2013-3-20,24,16,8,9,5,3,79,63,43,30.35,30.26,30.12,10,10,10,20,12,28,0.00,0,,339
2013-3-21,32,20,8,19,11,3,86,66,47,30.12,30.03,29.95,10,10,10,9,4,,0.00,0,,103
2013-3-22,33,25,17,25,18,12,93,73,52,30.05,30.02,29.99,10,10,10,10,4,,0.00,3,,105
2013-3-23,32,29,26,23,22,19,86,74,64,30.14,30.11,30.05,10,10,4,14,5,17,0.00,7,Snow,21
2013-3-24,30,26,23,25,20,18,86,75,64,30.12,30.06,30.00,10,8,1,18,12,26,0.00,8,Snow,354
2013-3-25,30,27,24,21,20,18,86,73,64,30.31,30.20,30.09,10,9,2,17,14,25,0.00,8,Snow,345
2013-3-26,35,24,14,23,16,10,93,71,48,30.33,30.29,30.22,10,10,4,9,5,,0.00,0,,254
2013-3-27,46,34,23,28,25,19,87,69,39,30.26,30.24,30.20,10,10,10,14,6,20,0.00,1,,137
2013-3-28,55,42,30,36,31,27,93,73,41,30.26,30.21,30.17,10,9,1,17,6,20,0.00,1,,158
2013-3-29,60,46,32,37,34,28,100,70,36,30.22,30.13,29.99,10,8,4,22,5,28,0.00,1,,169
2013-3-30,59,47,35,43,39,34,93,72,42,29.99,29.94,29.91,10,8,0,20,11,24,0.00,3,Fog-Thunderstorm,292
2013-3-31,39,32,26,34,25,16,100,74,48,30.18,30.00,29.91,10,8,0,23,12,29,0.00,4,Fog-Rain,335